COSMOS 2251 DEB

Satellite information

Favourite Embed

Satellite Type and Status

DEBRISIN ORBIT

Key statistics

Satellite COSMOS 2251 DEB at a glance.

Uptime

11651

Days in orbit

Revolutions

≈ 14.6

Per day

Orbit

LEO

Low Earth Orbit

Inclination

74.0

Latest

Satellite identification and parameters

Extended collection of information and parameters for COSMOS 2251 DEB.

Object identification

Identified? True

Debris? True

Object name: COSMOS 2251 DEB

International designator: 1993-036LW

Object number (NORAD): 34276

Object ID (CCSDS): 34276

Country: COMMONWEALTH OF INDEPENDENT STATES (CIS)

Current information (Y/N): Y

RCS size: SMALL

Orbital parameters

Period: 98.924 minutes

Inclination: 74.0219 deg

SMA: 7085.359 km

Apoapsis: 724.487 km

Periapsis: 689.961 km

RAAN: 137.8584 deg

Eccentricy: 0.0024364

Argument of periapsis: 328.8235 deg

Mean anomaly: 154.5902 deg

Mean motion: 14.55660057 rev/day

Mean motion (dot): 0.00003365 rev/day2

B* drag term: 0.00077374 1/REarth

Two-line elements (TLE)

Creation date: May 10, 2025, 2:32 a.m.

Reference frame: TEME

Reference center: EARTH

Epoch: May 9, 2025, 10:20 a.m. UTC

TLE line 0: 0 COSMOS 2251 DEB

TLE line 1: 1 34276U 93036LW 25129.43108059 .00003365 00000-0 77374-3 0 9990

TLE line 2: 2 34276 74.0219 137.8584 0024364 328.8235 154.5902 14.55660057854296

Live tracking on map

Real-time ground track for satellite COSMOS 2251 DEB.

In-orbit conjunctions

A list of the most updated potential collisions computed for object COSMOS 2251 DEB.

Target Orbit TCA Probability of collision Miss distance Type
CZ-6A DEB LEO 2024-12-30 10:20:25 0.0001149668 938.0 (m) DEBRIS
CZ-6A DEB LEO 2024-12-17 05:14:21 0.000100856 947.0 (m) DEBRIS

Associated space launch

Military communications satellite. Destroyed in a collision with Iridium 33.

COSMOS 2251 DEB was lifted into orbit during the mission ‘Kosmos-3M | Strela-2M 51’, on board a Kosmos-3M space rocket.

The launch took place on June 16, 1993, 4:17 a.m. from 132/1 (132L).

For more information about the launch, click the button.

Launch to space Kosmos-3M | Strela-2M 51
Kosmos-3M | Strela-2M 51

Agency: N/A

Status: Launch Successful

Launch date: June 16, 1993, 4:17 a.m. UTC

Rocket: Kosmos-3M

Launch pad: 132/1 (132L)

Location: Plesetsk Cosmodrome, Russian Federation

...

Latest news about this satellite

There are no fresh news available about this satellite. Check back as we update our databases every day.


Newsletter sign-up

Weekly statistics, charts and insights to help you stay on top of the space industry.